Year,Month,Day,Hour,Minute,Value (Times are PST for insolation in W/m^2)
2010,05,23,00,00,0.00
2010,05,23,00,01,0.00
2010,05,23,00,02,0.00
2010,05,23,00,03,0.00
2010,05,23,00,04,0.00
2010,05,23,00,05,0.00
2010,05,23,00,06,0.00
2010,05,23,00,07,0.00
2010,05,23,00,08,0.00
2010,05,23,00,09,0.00
2010,05,23,00,10,0.00
2010,05,23,00,11,0.00
2010,05,23,00,12,0.00
2010,05,23,00,13,0.00
2010,05,23,00,14,0.00
2010,05,23,00,15,0.00
2010,05,23,00,16,0.00
2010,05,23,00,17,0.00
2010,05,23,00,18,0.00
2010,05,23,00,19,0.00
2010,05,23,00,20,0.00
2010,05,23,00,21,0.00
2010,05,23,00,22,0.00
2010,05,23,00,23,0.00
2010,05,23,00,24,0.00
2010,05,23,00,25,0.00
2010,05,23,00,26,0.00
2010,05,23,00,27,0.00
2010,05,23,00,28,0.00
2010,05,23,00,29,0.00
2010,05,23,00,30,0.00
2010,05,23,00,31,0.00
2010,05,23,00,32,0.00
2010,05,23,00,33,0.00
2010,05,23,00,34,0.00
2010,05,23,00,35,0.00
2010,05,23,00,36,0.00
2010,05,23,00,37,0.00
2010,05,23,00,38,0.00
2010,05,23,00,39,0.00
2010,05,23,00,40,0.00
2010,05,23,00,41,0.00
2010,05,23,00,42,0.00
2010,05,23,00,43,0.00
2010,05,23,00,44,0.00
2010,05,23,00,45,0.00
2010,05,23,00,46,0.00
2010,05,23,00,47,0.00
2010,05,23,00,48,0.00
2010,05,23,00,49,0.00
2010,05,23,00,50,0.00
2010,05,23,00,51,0.00
2010,05,23,00,52,0.00
2010,05,23,00,53,0.00
2010,05,23,00,54,0.00
2010,05,23,00,55,0.00
2010,05,23,00,56,0.00
2010,05,23,00,57,0.00
2010,05,23,00,58,0.00
2010,05,23,00,59,0.00
2010,05,23,01,00,0.00
2010,05,23,01,01,0.00
2010,05,23,01,02,0.00
2010,05,23,01,03,0.00
2010,05,23,01,04,0.00
2010,05,23,01,05,0.00
2010,05,23,01,06,0.00
2010,05,23,01,07,0.00
2010,05,23,01,08,0.00
2010,05,23,01,09,0.00
2010,05,23,01,10,0.00
2010,05,23,01,11,0.00
2010,05,23,01,12,0.00
2010,05,23,01,13,0.00
2010,05,23,01,14,0.00
2010,05,23,01,15,0.00
2010,05,23,01,16,0.00
2010,05,23,01,17,0.00
2010,05,23,01,18,0.00
2010,05,23,01,19,0.00
2010,05,23,01,20,0.00
2010,05,23,01,21,0.00
2010,05,23,01,22,0.00
2010,05,23,01,23,0.00
2010,05,23,01,24,0.00
2010,05,23,01,25,0.00
2010,05,23,01,26,0.00
2010,05,23,01,27,0.00
2010,05,23,01,28,0.00
2010,05,23,01,29,0.00
2010,05,23,01,30,0.00
2010,05,23,01,31,0.00
2010,05,23,01,32,0.00
2010,05,23,01,33,0.00
2010,05,23,01,34,0.00
2010,05,23,01,35,0.00
2010,05,23,01,36,0.00
2010,05,23,01,37,0.00
2010,05,23,01,38,0.00
2010,05,23,01,39,0.00
2010,05,23,01,40,0.00
2010,05,23,01,41,0.00
2010,05,23,01,42,0.00
2010,05,23,01,43,0.00
2010,05,23,01,44,0.00
2010,05,23,01,45,0.00
2010,05,23,01,46,0.00
2010,05,23,01,47,0.00
2010,05,23,01,48,0.00
2010,05,23,01,49,0.00
2010,05,23,01,50,0.00
2010,05,23,01,51,0.00
2010,05,23,01,52,0.00
2010,05,23,01,53,0.00
2010,05,23,01,54,0.00
2010,05,23,01,55,0.00
2010,05,23,01,56,0.00
2010,05,23,01,57,0.00
2010,05,23,01,58,0.00
2010,05,23,01,59,0.00
2010,05,23,02,00,0.00
2010,05,23,02,01,0.00
2010,05,23,02,02,0.00
2010,05,23,02,03,0.00
2010,05,23,02,04,0.00
2010,05,23,02,05,0.00
2010,05,23,02,06,0.00
2010,05,23,02,07,0.00
2010,05,23,02,08,0.00
2010,05,23,02,09,0.00
2010,05,23,02,10,0.00
2010,05,23,02,11,0.00
2010,05,23,02,12,0.00
2010,05,23,02,13,0.00
2010,05,23,02,14,0.00
2010,05,23,02,15,0.00
2010,05,23,02,16,0.00
2010,05,23,02,17,0.00
2010,05,23,02,18,0.00
2010,05,23,02,19,0.00
2010,05,23,02,20,0.00
2010,05,23,02,21,0.00
2010,05,23,02,22,0.00
2010,05,23,02,23,0.00
2010,05,23,02,24,0.00
2010,05,23,02,25,0.00
2010,05,23,02,26,0.00
2010,05,23,02,27,0.00
2010,05,23,02,28,0.00
2010,05,23,02,29,0.00
2010,05,23,02,30,0.00
2010,05,23,02,31,0.00
2010,05,23,02,32,0.00
2010,05,23,02,33,0.00
2010,05,23,02,34,0.00
2010,05,23,02,35,0.00
2010,05,23,02,36,0.00
2010,05,23,02,37,0.00
2010,05,23,02,38,0.00
2010,05,23,02,39,0.00
2010,05,23,02,40,0.00
2010,05,23,02,41,0.00
2010,05,23,02,42,0.00
2010,05,23,02,43,0.00
2010,05,23,02,44,0.00
2010,05,23,02,45,0.00
2010,05,23,02,46,0.00
2010,05,23,02,47,0.00
2010,05,23,02,48,0.00
2010,05,23,02,49,0.00
2010,05,23,02,50,0.00
2010,05,23,02,51,0.00
2010,05,23,02,52,0.00
2010,05,23,02,53,0.00
2010,05,23,02,54,0.00
2010,05,23,02,55,0.00
2010,05,23,02,56,0.00
2010,05,23,02,57,0.00
2010,05,23,02,58,0.00
2010,05,23,02,59,0.00
2010,05,23,03,00,0.00
2010,05,23,03,01,0.00
2010,05,23,03,02,0.00
2010,05,23,03,03,0.00
2010,05,23,03,04,0.00
2010,05,23,03,05,0.00
2010,05,23,03,06,0.00
2010,05,23,03,07,0.00
2010,05,23,03,08,0.00
2010,05,23,03,09,0.00
2010,05,23,03,10,0.00
2010,05,23,03,11,0.00
2010,05,23,03,12,0.00
2010,05,23,03,13,0.00
2010,05,23,03,14,0.00
2010,05,23,03,15,0.00
2010,05,23,03,16,0.00
2010,05,23,03,17,0.00
2010,05,23,03,18,0.00
2010,05,23,03,19,0.00
2010,05,23,03,20,0.00
2010,05,23,03,21,0.00
2010,05,23,03,22,0.00
2010,05,23,03,23,0.00
2010,05,23,03,24,0.00
2010,05,23,03,25,0.00
2010,05,23,03,26,0.00
2010,05,23,03,27,0.00
2010,05,23,03,28,0.00
2010,05,23,03,29,0.00
2010,05,23,03,30,0.00
2010,05,23,03,31,0.00
2010,05,23,03,32,0.00
2010,05,23,03,33,0.00
2010,05,23,03,34,0.00
2010,05,23,03,35,0.00
2010,05,23,03,36,0.00
2010,05,23,03,37,0.00
2010,05,23,03,38,0.00
2010,05,23,03,39,0.00
2010,05,23,03,40,0.00
2010,05,23,03,41,0.00
2010,05,23,03,42,0.00
2010,05,23,03,43,0.00
2010,05,23,03,44,0.00
2010,05,23,03,45,0.00
2010,05,23,03,46,0.00
2010,05,23,03,47,0.00
2010,05,23,03,48,0.00
2010,05,23,03,49,0.00
2010,05,23,03,50,0.00
2010,05,23,03,51,0.00
2010,05,23,03,52,0.00
2010,05,23,03,53,0.00
2010,05,23,03,54,0.00
2010,05,23,03,55,0.00
2010,05,23,03,56,0.00
2010,05,23,03,57,0.00
2010,05,23,03,58,0.00
2010,05,23,03,59,0.00
2010,05,23,04,00,0.00
2010,05,23,04,01,0.00
2010,05,23,04,02,0.00
2010,05,23,04,03,0.00
2010,05,23,04,04,0.00
2010,05,23,04,05,0.00
2010,05,23,04,06,0.00
2010,05,23,04,07,0.00
2010,05,23,04,08,0.00
2010,05,23,04,09,0.00
2010,05,23,04,10,0.00
2010,05,23,04,11,0.00
2010,05,23,04,12,0.00
2010,05,23,04,13,0.00
2010,05,23,04,14,0.00
2010,05,23,04,15,0.00
2010,05,23,04,16,0.00
2010,05,23,04,17,0.00
2010,05,23,04,18,0.00
2010,05,23,04,19,0.00
2010,05,23,04,20,0.00
2010,05,23,04,21,0.00
2010,05,23,04,22,0.00
2010,05,23,04,23,0.00
2010,05,23,04,24,0.00
2010,05,23,04,25,0.00
2010,05,23,04,26,0.00
2010,05,23,04,27,0.00
2010,05,23,04,28,0.00
2010,05,23,04,29,0.00
2010,05,23,04,30,0.00
2010,05,23,04,31,0.00
2010,05,23,04,32,0.00
2010,05,23,04,33,0.00
2010,05,23,04,34,0.00
2010,05,23,04,35,0.00
2010,05,23,04,36,0.00
2010,05,23,04,37,0.00
2010,05,23,04,38,0.00
2010,05,23,04,39,0.00
2010,05,23,04,40,0.00
2010,05,23,04,41,0.00
2010,05,23,04,42,0.00
2010,05,23,04,43,0.00
2010,05,23,04,44,0.00
2010,05,23,04,45,0.00
2010,05,23,04,46,0.00
2010,05,23,04,47,0.00
2010,05,23,04,48,0.00
2010,05,23,04,49,0.00
2010,05,23,04,50,0.00
2010,05,23,04,51,0.00
2010,05,23,04,52,0.00
2010,05,23,04,53,0.00
2010,05,23,04,54,0.00
2010,05,23,04,55,0.00
2010,05,23,04,56,0.00
2010,05,23,04,57,0.00
2010,05,23,04,58,0.00
2010,05,23,04,59,0.00
2010,05,23,05,00,0.00
2010,05,23,05,01,0.00
2010,05,23,05,02,0.00
2010,05,23,05,03,0.00
2010,05,23,05,04,0.00
2010,05,23,05,05,0.00
2010,05,23,05,06,0.00
2010,05,23,05,07,0.00
2010,05,23,05,08,0.00
2010,05,23,05,09,0.00
2010,05,23,05,10,0.00
2010,05,23,05,11,0.00
2010,05,23,05,12,0.00
2010,05,23,05,13,0.00
2010,05,23,05,14,0.00
2010,05,23,05,15,0.00
2010,05,23,05,16,0.00
2010,05,23,05,17,0.00
2010,05,23,05,18,0.00
2010,05,23,05,19,0.00
2010,05,23,05,20,0.00
2010,05,23,05,21,0.00
2010,05,23,05,22,0.00
2010,05,23,05,23,0.00
2010,05,23,05,24,0.00
2010,05,23,05,25,0.00
2010,05,23,05,26,0.00
2010,05,23,05,27,0.00
2010,05,23,05,28,0.00
2010,05,23,05,29,0.00
2010,05,23,05,30,0.00
2010,05,23,05,31,0.00
2010,05,23,05,32,0.00
2010,05,23,05,33,0.00
2010,05,23,05,34,0.00
2010,05,23,05,35,0.00
2010,05,23,05,36,1.50
2010,05,23,05,37,5.00
2010,05,23,05,38,5.00
2010,05,23,05,39,5.00
2010,05,23,05,40,5.10
2010,05,23,05,41,7.00
2010,05,23,05,42,7.00
2010,05,23,05,43,7.00
2010,05,23,05,44,7.00
2010,05,23,05,45,8.60
2010,05,23,05,46,9.00
2010,05,23,05,47,9.00
2010,05,23,05,48,9.70
2010,05,23,05,49,11.00
2010,05,23,05,50,11.00
2010,05,23,05,51,11.00
2010,05,23,05,52,11.10
2010,05,23,05,53,12.00
2010,05,23,05,54,12.00
2010,05,23,05,55,13.10
2010,05,23,05,56,14.00
2010,05,23,05,57,14.00
2010,05,23,05,58,15.90
2010,05,23,05,59,16.00
2010,05,23,06,00,16.00
2010,05,23,06,01,17.20
2010,05,23,06,02,18.00
2010,05,23,06,03,18.80
2010,05,23,06,04,19.00
2010,05,23,06,05,19.50
2010,05,23,06,06,21.00
2010,05,23,06,07,21.00
2010,05,23,06,08,22.40
2010,05,23,06,09,23.00
2010,05,23,06,10,25.00
2010,05,23,06,11,25.30
2010,05,23,06,12,26.00
2010,05,23,06,13,27.20
2010,05,23,06,14,28.00
2010,05,23,06,15,28.00
2010,05,23,06,16,30.00
2010,05,23,06,17,30.60
2010,05,23,06,18,32.00
2010,05,23,06,19,32.00
2010,05,23,06,20,32.00
2010,05,23,06,21,32.90
2010,05,23,06,22,33.40
2010,05,23,06,23,35.70
2010,05,23,06,24,38.00
2010,05,23,06,25,39.00
2010,05,23,06,26,39.80
2010,05,23,06,27,42.00
2010,05,23,06,28,44.00
2010,05,23,06,29,44.70
2010,05,23,06,30,46.50
2010,05,23,06,31,47.00
2010,05,23,06,32,48.60
2010,05,23,06,33,51.10
2010,05,23,06,34,53.80
2010,05,23,06,35,56.70
2010,05,23,06,36,60.10
2010,05,23,06,37,62.70
2010,05,23,06,38,63.00
2010,05,23,06,39,65.00
2010,05,23,06,40,65.50
2010,05,23,06,41,67.00
2010,05,23,06,42,68.10
2010,05,23,06,43,71.10
2010,05,23,06,44,73.70
2010,05,23,06,45,77.20
2010,05,23,06,46,79.60
2010,05,23,06,47,81.90
2010,05,23,06,48,83.60
2010,05,23,06,49,84.00
2010,05,23,06,50,84.10
2010,05,23,06,51,86.30
2010,05,23,06,52,88.60
2010,05,23,06,53,90.40
2010,05,23,06,54,92.20
2010,05,23,06,55,94.50
2010,05,23,06,56,100.20
2010,05,23,06,57,116.10
2010,05,23,06,58,125.90
2010,05,23,06,59,121.90
2010,05,23,07,00,127.20
2010,05,23,07,01,136.80
2010,05,23,07,02,143.10
2010,05,23,07,03,162.20
2010,05,23,07,04,153.40
2010,05,23,07,05,151.40
2010,05,23,07,06,145.30
2010,05,23,07,07,146.00
2010,05,23,07,08,150.70
2010,05,23,07,09,153.40
2010,05,23,07,10,155.00
2010,05,23,07,11,154.00
2010,05,23,07,12,154.30
2010,05,23,07,13,155.00
2010,05,23,07,14,156.40
2010,05,23,07,15,160.50
2010,05,23,07,16,162.40
2010,05,23,07,17,163.00
2010,05,23,07,18,163.00
2010,05,23,07,19,163.00
2010,05,23,07,20,162.90
2010,05,23,07,21,162.00
2010,05,23,07,22,161.10
2010,05,23,07,23,160.00
2010,05,23,07,24,158.60
2010,05,23,07,25,158.00
2010,05,23,07,26,156.00
2010,05,23,07,27,156.00
2010,05,23,07,28,156.00
2010,05,23,07,29,156.00
2010,05,23,07,30,157.50
2010,05,23,07,31,156.30
2010,05,23,07,32,155.80
2010,05,23,07,33,153.80
2010,05,23,07,34,150.10
2010,05,23,07,35,147.20
2010,05,23,07,36,143.10
2010,05,23,07,37,139.20
2010,05,23,07,38,137.00
2010,05,23,07,39,137.00
2010,05,23,07,40,137.00
2010,05,23,07,41,137.00
2010,05,23,07,42,135.40
2010,05,23,07,43,134.00
2010,05,23,07,44,131.20
2010,05,23,07,45,126.90
2010,05,23,07,46,123.00
2010,05,23,07,47,117.80
2010,05,23,07,48,112.20
2010,05,23,07,49,107.20
2010,05,23,07,50,101.20
2010,05,23,07,51,97.70
2010,05,23,07,52,97.00
2010,05,23,07,53,97.00
2010,05,23,07,54,97.00
2010,05,23,07,55,100.10
2010,05,23,07,56,104.20
2010,05,23,07,57,106.60
2010,05,23,07,58,111.10
2010,05,23,07,59,113.70
2010,05,23,08,00,117.40
2010,05,23,08,01,120.30
2010,05,23,08,02,124.20
2010,05,23,08,03,129.10
2010,05,23,08,04,134.80
2010,05,23,08,05,139.70
2010,05,23,08,06,143.60
2010,05,23,08,07,148.10
2010,05,23,08,08,149.00
2010,05,23,08,09,149.00
2010,05,23,08,10,150.10
2010,05,23,08,11,153.80
2010,05,23,08,12,155.90
2010,05,23,08,13,158.30
2010,05,23,08,14,160.60
2010,05,23,08,15,162.00
2010,05,23,08,16,162.00
2010,05,23,08,17,160.50
2010,05,23,08,18,161.70
2010,05,23,08,19,162.10
2010,05,23,08,20,164.90
2010,05,23,08,21,172.10
2010,05,23,08,22,181.40
2010,05,23,08,23,192.40
2010,05,23,08,24,199.60
2010,05,23,08,25,201.00
2010,05,23,08,26,193.90
2010,05,23,08,27,183.50
2010,05,23,08,28,174.70
2010,05,23,08,29,168.10
2010,05,23,08,30,161.90
2010,05,23,08,31,155.40
2010,05,23,08,32,152.20
2010,05,23,08,33,151.00
2010,05,23,08,34,149.70
2010,05,23,08,35,149.00
2010,05,23,08,36,148.10
2010,05,23,08,37,148.20
2010,05,23,08,38,149.00
2010,05,23,08,39,151.10
2010,05,23,08,40,154.30
2010,05,23,08,41,159.20
2010,05,23,08,42,163.40
2010,05,23,08,43,170.20
2010,05,23,08,44,176.00
2010,05,23,08,45,183.90
2010,05,23,08,46,195.50
2010,05,23,08,47,205.80
2010,05,23,08,48,221.30
2010,05,23,08,49,235.60
2010,05,23,08,50,246.90
2010,05,23,08,51,254.30
2010,05,23,08,52,259.20
2010,05,23,08,53,260.00
2010,05,23,08,54,260.60
2010,05,23,08,55,264.90
2010,05,23,08,56,270.10
2010,05,23,08,57,276.30
2010,05,23,08,58,280.20
2010,05,23,08,59,282.80
2010,05,23,09,00,283.40
2010,05,23,09,01,285.60
2010,05,23,09,02,287.50
2010,05,23,09,03,290.50
2010,05,23,09,04,293.50
2010,05,23,09,05,296.90
2010,05,23,09,06,301.20
2010,05,23,09,07,302.00
2010,05,23,09,08,300.60
2010,05,23,09,09,297.80
2010,05,23,09,10,303.80
2010,05,23,09,11,308.40
2010,05,23,09,12,322.00
2010,05,23,09,13,351.30
2010,05,23,09,14,405.00
2010,05,23,09,15,462.60
2010,05,23,09,16,472.40
2010,05,23,09,17,507.60
2010,05,23,09,18,819.00
2010,05,23,09,19,748.20
2010,05,23,09,20,642.00
2010,05,23,09,21,544.70
2010,05,23,09,22,485.10
2010,05,23,09,23,429.50
2010,05,23,09,24,469.30
2010,05,23,09,25,464.60
2010,05,23,09,26,508.80
2010,05,23,09,27,605.10
2010,05,23,09,28,629.00
2010,05,23,09,29,663.50
2010,05,23,09,30,749.50
2010,05,23,09,31,786.60
2010,05,23,09,32,748.30
2010,05,23,09,33,742.00
2010,05,23,09,34,731.30
2010,05,23,09,35,522.70
2010,05,23,09,36,505.00
2010,05,23,09,37,518.50
2010,05,23,09,38,480.60
2010,05,23,09,39,478.80
2010,05,23,09,40,476.40
2010,05,23,09,41,476.00
2010,05,23,09,42,476.00
2010,05,23,09,43,476.00
2010,05,23,09,44,476.00
2010,05,23,09,45,476.00
2010,05,23,09,46,485.40
2010,05,23,09,47,649.00
2010,05,23,09,48,589.00
2010,05,23,09,49,589.00
2010,05,23,09,50,601.00
2010,05,23,09,51,608.00
2010,05,23,09,52,744.10
2010,05,23,09,53,744.40
2010,05,23,09,54,740.60
2010,05,23,09,55,737.50
2010,05,23,09,56,735.70
2010,05,23,09,57,731.80
2010,05,23,09,58,731.20
2010,05,23,09,59,732.50
2010,05,23,10,00,731.00
2010,05,23,10,01,731.00
2010,05,23,10,02,733.60
2010,05,23,10,03,735.00
2010,05,23,10,04,738.20
2010,05,23,10,05,741.00
2010,05,23,10,06,744.00
2010,05,23,10,07,744.60
2010,05,23,10,08,746.40
2010,05,23,10,09,747.00
2010,05,23,10,10,745.60
2010,05,23,10,11,749.00
2010,05,23,10,12,749.00
2010,05,23,10,13,747.80
2010,05,23,10,14,747.00
2010,05,23,10,15,747.20
2010,05,23,10,16,752.30
2010,05,23,10,17,754.60
2010,05,23,10,18,756.90
2010,05,23,10,19,758.60
2010,05,23,10,20,758.20
2010,05,23,10,21,758.50
2010,05,23,10,22,768.80
2010,05,23,10,23,772.00
2010,05,23,10,24,772.50
2010,05,23,10,25,780.80
2010,05,23,10,26,792.80
2010,05,23,10,27,801.30
2010,05,23,10,28,803.00
2010,05,23,10,29,802.70
2010,05,23,10,30,802.50
2010,05,23,10,31,803.00
2010,05,23,10,32,800.60
2010,05,23,10,33,800.20
2010,05,23,10,34,801.60
2010,05,23,10,35,800.00
2010,05,23,10,36,800.00
2010,05,23,10,37,801.40
2010,05,23,10,38,802.00
2010,05,23,10,39,800.10
2010,05,23,10,40,800.00
2010,05,23,10,41,800.80
2010,05,23,10,42,802.00
2010,05,23,10,43,802.70
2010,05,23,10,44,806.40
2010,05,23,10,45,809.50
2010,05,23,10,46,814.50
2010,05,23,10,47,815.20
2010,05,23,10,48,815.10
2010,05,23,10,49,816.70
2010,05,23,10,50,822.10
2010,05,23,10,51,823.00
2010,05,23,10,52,823.00
2010,05,23,10,53,823.40
2010,05,23,10,54,824.00
2010,05,23,10,55,825.40
2010,05,23,10,56,828.00
2010,05,23,10,57,833.30
2010,05,23,10,58,835.90
2010,05,23,10,59,839.80
2010,05,23,11,00,844.40
2010,05,23,11,01,848.20
2010,05,23,11,02,855.70
2010,05,23,11,03,863.00
2010,05,23,11,04,865.80
2010,05,23,11,05,868.00
2010,05,23,11,06,875.00
2010,05,23,11,07,887.20
2010,05,23,11,08,889.60
2010,05,23,11,09,900.00
2010,05,23,11,10,903.20
2010,05,23,11,11,903.50
2010,05,23,11,12,893.60
2010,05,23,11,13,888.60
2010,05,23,11,14,891.20
2010,05,23,11,15,900.50
2010,05,23,11,16,902.00
2010,05,23,11,17,911.50
2010,05,23,11,18,924.40
2010,05,23,11,19,927.60
2010,05,23,11,20,947.70
2010,05,23,11,21,939.20
2010,05,23,11,22,859.20
2010,05,23,11,23,846.00
2010,05,23,11,24,846.00
2010,05,23,11,25,846.00
2010,05,23,11,26,846.00
2010,05,23,11,27,846.00
2010,05,23,11,28,929.40
2010,05,23,11,29,1052.80
2010,05,23,11,30,1081.00
2010,05,23,11,31,1131.30
2010,05,23,11,32,1177.40
2010,05,23,11,33,1174.00
2010,05,23,11,34,1174.00
2010,05,23,11,35,1174.00
2010,05,23,11,36,1142.50
2010,05,23,11,37,1108.00
2010,05,23,11,38,1109.00
2010,05,23,11,39,1109.00
2010,05,23,11,40,1086.70
2010,05,23,11,41,1062.00
2010,05,23,11,42,1062.00
2010,05,23,11,43,1069.70
2010,05,23,11,44,1088.60
2010,05,23,11,45,1100.70
2010,05,23,11,46,1128.60
2010,05,23,11,47,1144.80
2010,05,23,11,48,1166.50
2010,05,23,11,49,1183.70
2010,05,23,11,50,1185.00
2010,05,23,11,51,1185.00
2010,05,23,11,52,1185.00
2010,05,23,11,53,1064.80
2010,05,23,11,54,1000.00
2010,05,23,11,55,1170.80
2010,05,23,11,56,1124.50
2010,05,23,11,57,1156.60
2010,05,23,11,58,1207.10
2010,05,23,11,59,1211.20
2010,05,23,12,00,1215.40
2010,05,23,12,01,1229.90
2010,05,23,12,02,1246.80
2010,05,23,12,03,1245.60
2010,05,23,12,04,1219.50
2010,05,23,12,05,1204.60
2010,05,23,12,06,1212.80
2010,05,23,12,07,1288.20
2010,05,23,12,08,1306.00
2010,05,23,12,09,1306.00
2010,05,23,12,10,1027.70
2010,05,23,12,11,800.00
2010,05,23,12,12,800.00
2010,05,23,12,13,761.00
2010,05,23,12,14,761.00
2010,05,23,12,15,587.40
2010,05,23,12,16,328.60
2010,05,23,12,17,330.00
2010,05,23,12,18,349.90
2010,05,23,12,19,370.20
2010,05,23,12,20,439.40
2010,05,23,12,21,470.00
2010,05,23,12,22,378.20
2010,05,23,12,23,321.00
2010,05,23,12,24,310.20
2010,05,23,12,25,337.00
2010,05,23,12,26,397.00
2010,05,23,12,27,455.50
2010,05,23,12,28,527.00
2010,05,23,12,29,359.80
2010,05,23,12,30,309.00
2010,05,23,12,31,322.80
2010,05,23,12,32,344.60
2010,05,23,12,33,361.50
2010,05,23,12,34,366.60
2010,05,23,12,35,383.60
2010,05,23,12,36,388.00
2010,05,23,12,37,383.60
2010,05,23,12,38,351.60
2010,05,23,12,39,325.00
2010,05,23,12,40,320.10
2010,05,23,12,41,316.40
2010,05,23,12,42,322.90
2010,05,23,12,43,329.00
2010,05,23,12,44,334.60
2010,05,23,12,45,327.80
2010,05,23,12,46,334.20
2010,05,23,12,47,338.50
2010,05,23,12,48,344.00
2010,05,23,12,49,360.80
2010,05,23,12,50,399.60
2010,05,23,12,51,432.00
2010,05,23,12,52,432.00
2010,05,23,12,53,432.00
2010,05,23,12,54,432.00
2010,05,23,12,55,432.00
2010,05,23,12,56,428.00
2010,05,23,12,57,401.00
2010,05,23,12,58,380.40
2010,05,23,12,59,382.20
2010,05,23,13,00,402.40
2010,05,23,13,01,413.00
2010,05,23,13,02,417.80
2010,05,23,13,03,415.00
2010,05,23,13,04,424.00
2010,05,23,13,05,444.00
2010,05,23,13,06,478.00
2010,05,23,13,07,537.50
2010,05,23,13,08,585.10
2010,05,23,13,09,597.00
2010,05,23,13,10,650.90
2010,05,23,13,11,661.00
2010,05,23,13,12,804.00
2010,05,23,13,13,1357.70
2010,05,23,13,14,1318.00
2010,05,23,13,15,1318.00
2010,05,23,13,16,1079.50
2010,05,23,13,17,1000.00
2010,05,23,13,18,1000.00
2010,05,23,13,19,1022.80
2010,05,23,13,20,1065.00
2010,05,23,13,21,841.40
2010,05,23,13,22,721.00
2010,05,23,13,23,721.00
2010,05,23,13,24,721.00
2010,05,23,13,25,779.80
2010,05,23,13,26,868.00
2010,05,23,13,27,1003.80
2010,05,23,13,28,1062.00
2010,05,23,13,29,1052.70
2010,05,23,13,30,974.00
2010,05,23,13,31,974.00
2010,05,23,13,32,1101.40
2010,05,23,13,33,1237.60
2010,05,23,13,34,1255.00
2010,05,23,13,35,1255.00
2010,05,23,13,36,1255.00
2010,05,23,13,37,1274.60
2010,05,23,13,38,1329.30
2010,05,23,13,39,1343.40
2010,05,23,13,40,1320.60
2010,05,23,13,41,1287.00
2010,05,23,13,42,1145.70
2010,05,23,13,43,816.00
2010,05,23,13,44,816.00
2010,05,23,13,45,1014.80
2010,05,23,13,46,1064.40
2010,05,23,13,47,1052.20
2010,05,23,13,48,1047.50
2010,05,23,13,49,1044.00
2010,05,23,13,50,1042.10
2010,05,23,13,51,1041.00
2010,05,23,13,52,1042.30
2010,05,23,13,53,1051.60
2010,05,23,13,54,1069.30
2010,05,23,13,55,1089.30
2010,05,23,13,56,1102.80
2010,05,23,13,57,1098.90
2010,05,23,13,58,1094.80
2010,05,23,13,59,1070.20
2010,05,23,14,00,1050.80
2010,05,23,14,01,1040.00
2010,05,23,14,02,1039.00
2010,05,23,14,03,1035.00
2010,05,23,14,04,1025.00
2010,05,23,14,05,1012.50
2010,05,23,14,06,994.80
2010,05,23,14,07,977.70
2010,05,23,14,08,965.70
2010,05,23,14,09,958.80
2010,05,23,14,10,954.20
2010,05,23,14,11,953.80
2010,05,23,14,12,953.40
2010,05,23,14,13,954.00
2010,05,23,14,14,953.30
2010,05,23,14,15,953.00
2010,05,23,14,16,951.00
2010,05,23,14,17,950.50
2010,05,23,14,18,949.00
2010,05,23,14,19,947.80
2010,05,23,14,20,951.40
2010,05,23,14,21,952.80
2010,05,23,14,22,949.60
2010,05,23,14,23,953.30
2010,05,23,14,24,954.00
2010,05,23,14,25,955.20
2010,05,23,14,26,953.80
2010,05,23,14,27,952.70
2010,05,23,14,28,946.80
2010,05,23,14,29,944.60
2010,05,23,14,30,939.60
2010,05,23,14,31,934.00
2010,05,23,14,32,927.60
2010,05,23,14,33,923.20
2010,05,23,14,34,920.00
2010,05,23,14,35,915.30
2010,05,23,14,36,914.00
2010,05,23,14,37,912.70
2010,05,23,14,38,911.20
2010,05,23,14,39,910.80
2010,05,23,14,40,908.50
2010,05,23,14,41,908.40
2010,05,23,14,42,910.00
2010,05,23,14,43,910.40
2010,05,23,14,44,913.40
2010,05,23,14,45,924.50
2010,05,23,14,46,890.20
2010,05,23,14,47,751.00
2010,05,23,14,48,751.00
2010,05,23,14,49,751.00
2010,05,23,14,50,444.50
2010,05,23,14,51,387.00
2010,05,23,14,52,356.50
2010,05,23,14,53,278.60
2010,05,23,14,54,302.60
2010,05,23,14,55,319.30
2010,05,23,14,56,322.90
2010,05,23,14,57,343.50
2010,05,23,14,58,397.00
2010,05,23,14,59,397.00
2010,05,23,15,00,376.70
2010,05,23,15,01,345.20
2010,05,23,15,02,310.80
2010,05,23,15,03,304.60
2010,05,23,15,04,325.00
2010,05,23,15,05,334.90
2010,05,23,15,06,346.00
2010,05,23,15,07,346.00
2010,05,23,15,08,1017.40
2010,05,23,15,09,1092.00
2010,05,23,15,10,852.00
2010,05,23,15,11,316.20
2010,05,23,15,12,291.60
2010,05,23,15,13,301.50
2010,05,23,15,14,348.30
2010,05,23,15,15,353.00
2010,05,23,15,16,334.10
2010,05,23,15,17,296.60
2010,05,23,15,18,315.50
2010,05,23,15,19,360.60
2010,05,23,15,20,408.80
2010,05,23,15,21,411.00
2010,05,23,15,22,411.00
2010,05,23,15,23,411.00
2010,05,23,15,24,777.00
2010,05,23,15,25,960.30
2010,05,23,15,26,935.80
2010,05,23,15,27,892.00
2010,05,23,15,28,862.50
2010,05,23,15,29,848.50
2010,05,23,15,30,839.20
2010,05,23,15,31,835.40
2010,05,23,15,32,832.80
2010,05,23,15,33,830.80
2010,05,23,15,34,828.50
2010,05,23,15,35,824.90
2010,05,23,15,36,824.00
2010,05,23,15,37,823.20
2010,05,23,15,38,821.30
2010,05,23,15,39,822.50
2010,05,23,15,40,821.00
2010,05,23,15,41,818.80
2010,05,23,15,42,817.00
2010,05,23,15,43,817.00
2010,05,23,15,44,811.00
2010,05,23,15,45,806.40
2010,05,23,15,46,803.70
2010,05,23,15,47,798.40
2010,05,23,15,48,796.00
2010,05,23,15,49,793.20
2010,05,23,15,50,789.30
2010,05,23,15,51,789.50
2010,05,23,15,52,786.00
2010,05,23,15,53,787.30
2010,05,23,15,54,783.50
2010,05,23,15,55,781.90
2010,05,23,15,56,779.80
2010,05,23,15,57,778.30
2010,05,23,15,58,776.10
2010,05,23,15,59,772.00
2010,05,23,16,00,770.00
2010,05,23,16,01,766.20
2010,05,23,16,02,765.40
2010,05,23,16,03,763.00
2010,05,23,16,04,763.00
2010,05,23,16,05,761.70
2010,05,23,16,06,761.00
2010,05,23,16,07,758.80
2010,05,23,16,08,755.50
2010,05,23,16,09,753.20
2010,05,23,16,10,750.40
2010,05,23,16,11,747.60
2010,05,23,16,12,747.00
2010,05,23,16,13,744.00
2010,05,23,16,14,740.80
2010,05,23,16,15,737.00
2010,05,23,16,16,737.00
2010,05,23,16,17,737.00
2010,05,23,16,18,687.70
2010,05,23,16,19,738.30
2010,05,23,16,20,727.40
2010,05,23,16,21,722.70
2010,05,23,16,22,719.80
2010,05,23,16,23,719.00
2010,05,23,16,24,715.60
2010,05,23,16,25,714.00
2010,05,23,16,26,713.40
2010,05,23,16,27,710.10
2010,05,23,16,28,709.30
2010,05,23,16,29,708.50
2010,05,23,16,30,708.00
2010,05,23,16,31,708.60
2010,05,23,16,32,713.00
2010,05,23,16,33,714.50
2010,05,23,16,34,711.60
2010,05,23,16,35,707.60
2010,05,23,16,36,707.00
2010,05,23,16,37,707.80
2010,05,23,16,38,712.70
2010,05,23,16,39,714.50
2010,05,23,16,40,717.50
2010,05,23,16,41,722.80
2010,05,23,16,42,720.30
2010,05,23,16,43,703.00
2010,05,23,16,44,591.70
2010,05,23,16,45,401.00
2010,05,23,16,46,611.00
2010,05,23,16,47,716.80
2010,05,23,16,48,719.50
2010,05,23,16,49,709.80
2010,05,23,16,50,675.60
2010,05,23,16,51,722.00
2010,05,23,16,52,715.00
2010,05,23,16,53,715.00
2010,05,23,16,54,661.70
2010,05,23,16,55,209.00
2010,05,23,16,56,434.50
2010,05,23,16,57,710.00
2010,05,23,16,58,710.00
2010,05,23,16,59,240.90
2010,05,23,17,00,177.60
2010,05,23,17,01,195.90
2010,05,23,17,02,220.80
2010,05,23,17,03,173.60
2010,05,23,17,04,158.70